• în Republica Moldova
  • Lista ţărilor
  • Pe 7 zile
  • Temperatura apei
  • Hartă satelitară
  • Meteo pe hartă
  • Widget-uri
  • user-avatar
    Intrare

    Meteo pe oră la Townsville

    Astăzi, 22 Mai, Miercuri

    Timp Temperatura Precipitaţii Vânt Presiune Umiditate
    00:00 +22°C° 0 mm 6 m/s 758 mmHg 83%
    01:00 +21°C° 0 mm 6 m/s 758 mmHg 85%
    02:00 +21°C° 0 mm 6 m/s 758 mmHg 85%
    03:00 +21°C° 0 mm 6 m/s 758 mmHg 86%
    04:00 +21°C° 0 mm 6 m/s 758 mmHg 86%
    05:00 +21°C° 0 mm 6 m/s 758 mmHg 87%
    06:00 +21°C° 0 mm 6 m/s 758 mmHg 87%
    07:00 +20°C° 0 mm 5 m/s 758 mmHg 87%
    08:00 +22°C° 0 mm 5 m/s 758 mmHg 81%
    09:00 +24°C° 0 mm 6 m/s 759 mmHg 74%
    10:00 +26°C° 0 mm 5 m/s 759 mmHg 67%
    11:00 +27°C° 0 mm 5 m/s 758 mmHg 64%
    12:00 +28°C° 0 mm 5 m/s 758 mmHg 61%
    13:00 +29°C° 0 mm 5 m/s 757 mmHg 58%
    14:00 +28°C° 0.1 mm 6 m/s 757 mmHg 60%
    15:00 +28°C° 0.1 mm 6 m/s 757 mmHg 63%
    16:00 +27°C° 0 mm 6 m/s 757 mmHg 66%
    17:00 +26°C° 0 mm 6 m/s 757 mmHg 71%
    18:00 +24°C° 0 mm 6 m/s 757 mmHg 76%
    19:00 +23°C° 0 mm 6 m/s 757 mmHg 81%
    20:00 +23°C° 0 mm 6 m/s 758 mmHg 82%
    21:00 +22°C° 0 mm 6 m/s 758 mmHg 83%
    22:00 +22°C° 0 mm 7 m/s 758 mmHg 84%
    23:00 +22°C° 0 mm 6 m/s 758 mmHg 85%

    Mâine, 23 Mai, Joi

    Timp Temperatura Precipitaţii Vânt Presiune Umiditate
    00:00 +21°C° 0 mm 6 m/s 758 mmHg 86%
    01:00 +21°C° 0 mm 6 m/s 758 mmHg 87%
    02:00 +21°C° 0 mm 6 m/s 758 mmHg 86%
    03:00 +21°C° 0 mm 6 m/s 757 mmHg 86%
    04:00 +21°C° 0 mm 6 m/s 757 mmHg 86%
    05:00 +21°C° 0 mm 5 m/s 758 mmHg 86%
    06:00 +21°C° 0 mm 5 m/s 758 mmHg 86%
    07:00 +20°C° 0 mm 5 m/s 758 mmHg 86%
    08:00 +22°C° 0 mm 5 m/s 758 mmHg 79%
    09:00 +25°C° 0 mm 5 m/s 758 mmHg 73%
    10:00 +26°C° 0 mm 6 m/s 759 mmHg 67%
    11:00 +27°C° 0 mm 5 m/s 758 mmHg 63%
    12:00 +28°C° 0 mm 5 m/s 758 mmHg 59%
    13:00 +29°C° 0 mm 5 m/s 757 mmHg 55%
    14:00 +29°C° 0 mm 5 m/s 757 mmHg 56%
    15:00 +28°C° 0 mm 6 m/s 756 mmHg 58%
    16:00 +28°C° 0 mm 6 m/s 756 mmHg 59%
    17:00 +27°C° 0 mm 5 m/s 756 mmHg 66%
    18:00 +25°C° 0 mm 5 m/s 756 mmHg 73%
    19:00 +23°C° 0 mm 5 m/s 757 mmHg 79%
    20:00 +22°C° 0 mm 5 m/s 757 mmHg 79%
    21:00 +22°C° 0 mm 5 m/s 757 mmHg 80%
    22:00 +22°C° 0 mm 5 m/s 758 mmHg 80%
    23:00 +21°C° 0 mm 5 m/s 757 mmHg 81%

    Poimâine, 24 Mai, Vineri

    Timp Temperatura Precipitaţii Vânt Presiune Umiditate
    00:00 +21°C° 0 mm 5 m/s 757 mmHg 83%
    01:00 +20°C° 0 mm 5 m/s 757 mmHg 85%
    02:00 +20°C° 0 mm 5 m/s 757 mmHg 86%
    03:00 +20°C° 0 mm 5 m/s 756 mmHg 87%
    04:00 +20°C° 0 mm 5 m/s 756 mmHg 88%
    05:00 +20°C° 0 mm 5 m/s 756 mmHg 88%
    06:00 +19°C° 0 mm 5 m/s 757 mmHg 88%
    07:00 +19°C° 0 mm 5 m/s 757 mmHg 88%
    08:00 +21°C° 0 mm 5 m/s 757 mmHg 81%
    09:00 +23°C° 0 mm 5 m/s 757 mmHg 74%
    10:00 +26°C° 0 mm 5 m/s 758 mmHg 66%
    11:00 +27°C° 0 mm 5 m/s 757 mmHg 63%
    12:00 +27°C° 0 mm 5 m/s 756 mmHg 61%
    13:00 +28°C° 0 mm 5 m/s 756 mmHg 58%
    14:00 +28°C° 0.1 mm 6 m/s 755 mmHg 61%
    15:00 +27°C° 0.1 mm 6 m/s 755 mmHg 63%
    16:00 +27°C° 0.1 mm 6 m/s 755 mmHg 66%
    17:00 +26°C° 0 mm 6 m/s 755 mmHg 71%
    18:00 +25°C° 0 mm 5 m/s 756 mmHg 77%
    19:00 +22°C° 0 mm 5 m/s 756 mmHg 83%
    20:00 +22°C° 0 mm 5 m/s 756 mmHg 84%
    21:00 +22°C° 0 mm 5 m/s 757 mmHg 85%
    22:00 +22°C° 0 mm 5 m/s 757 mmHg 86%
    23:00 +22°C° 0 mm 5 m/s 757 mmHg 87%

    25 Mai, Sâmbătă

    Timp Temperatura Precipitaţii Vânt Presiune Umiditate
    00:00 +21°C° 0 mm 5 m/s 756 mmHg 88%
    01:00 +21°C° 0 mm 5 m/s 756 mmHg 89%
    02:00 +21°C° 0.1 mm 5 m/s 756 mmHg 89%
    03:00 +21°C° 0.1 mm 5 m/s 756 mmHg 90%
    04:00 +21°C° 0.1 mm 5 m/s 755 mmHg 90%
    05:00 +21°C° 0.2 mm 5 m/s 756 mmHg 90%
    06:00 +21°C° 0.2 mm 5 m/s 756 mmHg 90%
    07:00 +20°C° 0.2 mm 5 m/s 756 mmHg 90%
    08:00 +22°C° 0.1 mm 5 m/s 756 mmHg 83%
    09:00 +23°C° 0.1 mm 5 m/s 756 mmHg 77%
    10:00 +26°C° 0.1 mm 5 m/s 757 mmHg 70%
    11:00 +27°C° 0.3 mm 5 m/s 756 mmHg 68%
    12:00 +27°C° 0.3 mm 5 m/s 755 mmHg 65%
    13:00 +28°C° 0.3 mm 6 m/s 755 mmHg 62%
    14:00 +27°C° 0.1 mm 5 m/s 754 mmHg 65%
    15:00 +27°C° 0.1 mm 5 m/s 754 mmHg 67%
    16:00 +26°C° 0.1 mm 5 m/s 754 mmHg 69%
    17:00 +25°C° 0 mm 5 m/s 754 mmHg 74%
    18:00 +23°C° 0 mm 5 m/s 755 mmHg 79%
    19:00 +22°C° 0 mm 4 m/s 755 mmHg 85%
    20:00 +22°C° 0 mm 4 m/s 755 mmHg 86%
    21:00 +22°C° 0 mm 4 m/s 756 mmHg 87%
    22:00 +22°C° 0 mm 4 m/s 756 mmHg 88%
    23:00 +22°C° 0 mm 4 m/s 756 mmHg 88%

    26 Mai, Duminică

    Timp Temperatura Precipitaţii Vânt Presiune Umiditate
    00:00 +21°C° 0 mm 3 m/s 756 mmHg 89%
    01:00 +21°C° 0 mm 3 m/s 755 mmHg 89%
    02:00 +21°C° 0 mm 3 m/s 755 mmHg 90%
    03:00 +21°C° 0 mm 3 m/s 755 mmHg 90%
    04:00 +21°C° 0 mm 3 m/s 755 mmHg 91%
    05:00 +21°C° 0 mm 3 m/s 755 mmHg 91%
    06:00 +21°C° 0 mm 3 m/s 756 mmHg 92%
    07:00 +20°C° 0 mm 3 m/s 756 mmHg 92%
    08:00 +22°C° 0 mm 3 m/s 756 mmHg 86%
    09:00 +24°C° 0 mm 3 m/s 756 mmHg 79%
    10:00 +26°C° 0 mm 3 m/s 756 mmHg 73%
    11:00 +26°C° 0 mm 4 m/s 756 mmHg 69%
    12:00 +27°C° 0 mm 4 m/s 755 mmHg 64%
    13:00 +28°C° 0 mm 4 m/s 754 mmHg 60%
    14:00 +28°C° 0 mm 4 m/s 754 mmHg 62%
    15:00 +27°C° 0 mm 4 m/s 754 mmHg 64%
    16:00 +27°C° 0 mm 4 m/s 754 mmHg 65%
    17:00 +26°C° 0.1 mm 4 m/s 754 mmHg 72%
    18:00 +25°C° 0.1 mm 3 m/s 755 mmHg 78%
    19:00 +22°C° 0.1 mm 3 m/s 755 mmHg 85%
    20:00 +22°C° 0.1 mm 3 m/s 756 mmHg 86%
    21:00 +22°C° 0.1 mm 3 m/s 756 mmHg 88%
    22:00 +22°C° 0.1 mm 3 m/s 756 mmHg 89%
    23:00 +23°C° 0.1 mm 2 m/s 756 mmHg 90%

    27 Mai, Luni

    Timp Temperatura Precipitaţii Vânt Presiune Umiditate
    00:00 +21°C° 0.1 mm 2 m/s 756 mmHg 90%
    01:00 +21°C° 0.1 mm 2 m/s 756 mmHg 91%
    02:00 +21°C° 0.1 mm 2 m/s 755 mmHg 91%
    03:00 +21°C° 0.1 mm 2 m/s 755 mmHg 91%
    04:00 +21°C° 0.1 mm 2 m/s 755 mmHg 91%
    05:00 +21°C° 0 mm 2 m/s 756 mmHg 90%
    06:00 +21°C° 0 mm 3 m/s 756 mmHg 89%
    07:00 +20°C° 0 mm 3 m/s 756 mmHg 89%
    08:00 +22°C° 0 mm 3 m/s 757 mmHg 80%
    09:00 +25°C° 0 mm 3 m/s 757 mmHg 71%
    10:00 +26°C° 0 mm 3 m/s 757 mmHg 63%
    11:00 +27°C° 0 mm 3 m/s 756 mmHg 58%
    12:00 +28°C° 0 mm 4 m/s 755 mmHg 54%
    13:00 +29°C° 0 mm 4 m/s 755 mmHg 49%
    14:00 +28°C° 0 mm 4 m/s 755 mmHg 52%
    15:00 +28°C° 0 mm 4 m/s 754 mmHg 54%
    16:00 +28°C° 0 mm 4 m/s 754 mmHg 57%
    17:00 +26°C° 0 mm 4 m/s 755 mmHg 63%
    18:00 +25°C° 0 mm 3 m/s 755 mmHg 70%
    19:00 +22°C° 0 mm 3 m/s 756 mmHg 76%
    20:00 +22°C° 0 mm 3 m/s 756 mmHg 78%
    21:00 +22°C° 0 mm 3 m/s 756 mmHg 80%
    22:00 +23°C° 0 mm 2 m/s 756 mmHg 82%
    23:00 +21°C° 0 mm 2 m/s 756 mmHg 83%
    Arată mai mult